Home   Weather   El Paso   Past weeks

Flag for USA Past Weather in El Paso, Texas, USA — Yesterday and Last 2 Weeks

59 °F


Feels Like: 59 °F
Forecast: 52 / 83 °F
Wind: No wind

Location: El Paso International Airport

Current Time: Oct 22, 2016 at 7:28:18 AM

Latest Report: Oct 22, 2016 at 6:51 AM

Visibility: 10 mi

Pressure: 30.00 "Hg (26.20 "Hg at 1142m altitude)

Humidity: 54%

Dew Point: 42 °F

Location of El PasoLocation

Past Weather in El Paso — Graph


El Paso Temperature Yesterday

Maximum temperature yesterday: 77 °F (at 3:51 PM)
Minimum temperature yesterday: 51 °F (at 6:51 AM)
Average temperature yesterday: 65 °F

High & Low Weather Summary for the Past Weeks

High89 °F (Oct 11, 2:51 PM)81% (Oct 10, 4:51 AM)30.25 "Hg (Oct 10, 4:51 AM)
Low51 °F (Oct 21, 6:51 AM)8% (Oct 18, 3:51 PM)29.65 "Hg (Oct 17, 5:51 PM)
Average71 °F38%29.94 "Hg
* Reported Oct 7 5:51 AM — Oct 22 5:51 AM, El Paso, Weather by CustomWeather, © 2016

Note: Actual official high and low records may vary slightly from our data, if they occured in-between our weather recording intervals... More about our weather records


El Paso Weather History for the Previous 24 Hours

Scroll right to see more
Time TempWeatherWind HumidityBarometerVisibility
5:51 AM
Sat, Oct 22
58 °FClear.3 mph56%29.98 "Hg10 mi
4:51 AM59 °FClear.No wind54%29.97 "Hg10 mi
3:51 AM61 °FClear.No wind50%29.98 "Hg10 mi
2:51 AM61 °FClear.No wind50%29.99 "Hg10 mi
1:51 AM58 °FClear.7 mph56%30.00 "Hg10 mi
12:51 AM62 °FClear.No wind48%29.99 "Hg10 mi
11:51 PM
Fri, Oct 21
64 °FClear.No wind43%29.99 "Hg10 mi
10:51 PM64 °FClear.5 mph45%30.01 "Hg10 mi
9:51 PM64 °FClear.No wind45%30.01 "Hg10 mi
8:51 PM69 °FClear.No wind38%29.99 "Hg10 mi
7:51 PM70 °FClear.No wind37%30.00 "Hg10 mi
6:51 PM71 °FClear.5 mph34%30.00 "Hg10 mi
5:51 PM76 °FSunny.3 mph29%29.98 "Hg10 mi
4:51 PM77 °FSunny.3 mph28%29.98 "Hg10 mi
3:51 PM77 °FSunny.No wind28%29.98 "Hg10 mi
2:51 PM75 °FSunny.3 mph28%30.01 "Hg10 mi
1:51 PM75 °FSunny.3 mph27%30.03 "Hg10 mi
12:51 PM73 °FSunny.No wind27%30.08 "Hg10 mi
11:51 AM71 °FSunny.3 mph27%30.12 "Hg10 mi
10:51 AM67 °FSunny.5 mph30%30.14 "Hg10 mi
9:51 AM64 °FSunny.3 mph32%30.17 "Hg10 mi
8:51 AM61 °FSunny.3 mph35%30.18 "Hg10 mi
7:51 AM54 °FSunny.5 mph43%30.18 "Hg10 mi
Weather by CustomWeather, © 2016

See weather overviewHow to use our weather pages